Regional Weather Roundup
Issued by NWS

Home | Current Version | Previous Version | Graphics & Text | Print | Product List | Glossary On
Versions: 1 2 3 4 5 6 7 8 9 10 11 12 13 14 15 16 17 18 19 20 21 22 23 24 25 26 27
000
ASUS45 KTFX 271310
RWRMT
MONTANA REGIONAL WEATHER ROUNDUP
NATIONAL WEATHER SERVICE GREAT FALLS MT
700 AM MDT FRI MAY 27 2016

NOTE: "FAIR" INDICATES FEW OR NO CLOUDS BELOW 12000 FEET WITH NO
SIGNIFICANT WEATHER AND/OR OBSTRUCTIONS TO VISIBILITY.

MTZ001>007-043-271400-
WEST OF THE DIVIDE

CITY           SKY/WX    TMP DP  RH WIND       PRES   REMARKS
KALISPELL      CLOUDY    46  46 100 CALM      29.89S
MISSOULA       PTSUNNY   47  45  93 W3        29.95R
BUTTE          CLOUDY    42  40  92 NW3       29.96R
MULLAN PASS    CLOUDY    34  33  96 NW5       29.95S
ANACONDA         N/A     43  39  87 SW6       29.94F
DEER LODGE       N/A     43  43 100 W3        29.96R
EUREKA           N/A     52  43  71 S8        29.87S
HAMILTON         N/A     48  41  76 S3        29.94R
LIBBY            N/A     52  43  71 CALM      29.89R
$$

MTZ008-052>055-271400-
SOUTHWEST MONTANA

CITY           SKY/WX    TMP DP  RH WIND       PRES   REMARKS
BOZEMAN        CLOUDY    44  42  93 CALM      29.96R
DILLON         CLOUDY    47  41  80 N3        29.95R
W YELLOWSTONE  CLOUDY    34  34 100 CALM      30.02R
ENNIS          CLOUDY    45  39  81 SE7       30.00F
$$

MTZ009-010-012-014-046-048-049-054-271400-
EAST SLOPES AND CENTRAL MONTANA

CITY           SKY/WX    TMP DP  RH WIND       PRES   REMARKS
CUT BANK       CLOUDY    50  42  74 W14       29.84S
GREAT FALLS    CLOUDY    48  44  86 SW8       29.87S
MALMSTROM AFB  MOSUNNY   44  43  96 S1        29.88S
HELENA         PTSUNNY   49  45  86 SW3       29.93R
CHOTEAU          N/A     46  43  87 S5        29.87R
$$

MTZ011-013-016-021-045-047-050-051-271400-
NORTH CENTRAL MONTANA

CITY           SKY/WX    TMP DP  RH WIND       PRES   REMARKS
HAVRE          SUNNY     48  45  89 E5        29.87R
LEWISTOWN      SUNNY     47  40  76 CALM      29.90S
N BAR RANCH      N/A     43  41  93 CALM      29.93S
CHINOOK          N/A     48  48 100 E7        29.89S
$$

MTZ017>020-022>027-061-062-271400-
NORTHEAST MONTANA

CITY           SKY/WX    TMP DP  RH WIND       PRES   REMARKS
GLASGOW        SUNNY     51  47  86 E3        29.89R
JORDAN           N/A     51  49  92 NE6       29.89R
SIDNEY         CLOUDY    52  49  89 N6        29.87F
WOLF POINT     SUNNY     48  45  89 NE5       29.90S
POPLAR           N/A     46  45  93 N5        29.90S
$$

MTZ028>42-056>058-271400-
SOUTHCENTRAL AND SOUTHEAST MONTANA

CITY           SKY/WX    TMP DP  RH WIND       PRES   REMARKS
BAKER          CLOUDY    48  45  89 CALM      29.88S
BILLINGS       MOSUNNY   48  44  86 SW6       29.91R
LIVINGSTON     MOSUNNY   42  39  89 W3        29.91F
MILES CITY     CLOUDY    52  48  86 W5        29.88R
FORSYTH          N/A     52  50  93 W7        29.87S
$$

REGIONAL REPORTS...DAKOTAS

CITY           SKY/WX    TMP DP  RH WIND       PRES   REMARKS
WILLISTON      MOSUNNY   53  49  86 NW3       29.87F
MINOT          PTSUNNY   57  53  86 NW5       29.82S
DICKINSON      CLOUDY    46  44  93 W5        29.85S
BEACH          FOG       46  46 100 CALM      29.90S VSB<1/4
CROSBY         PTSUNNY   52  52 100 NW7       29.89S
WATFORD CITY     N/A     46  46 100 S5        29.87S FOG
BISMARCK       CLOUDY    52  50  93 N5        29.84R
GRAND FORKS    MOSUNNY   59  54  83 NE3       29.79R
FARGO          MOSUNNY   60  56  86 N9        29.77S
BUFFALO SD       N/A     53  45  74 W6        29.80S
RAPID CITY     CLOUDY    51  44  77 NW10      29.85S
$$

REGIONAL REPORTS...WYOMING/IDAHO/WASHINGTON

CITY           SKY/WX    TMP DP  RH WIND       PRES   REMARKS
GILLETTE       PTSUNNY   47  43  86 N3        29.92R
SHERIDAN       SUNNY     48  43  82 CALM      29.91S
BUFFALO WY       N/A     49  37  63 MISG      29.94R
CODY           SUNNY     46  37  71 SW5       29.93S
YELLOWSTONE LA   N/A     33  31  92 CALM      30.07R
IDAHO FALLS    MOSUNNY   47  39  74 SW13      29.94S
SALMON         CLEAR     45  37  76 CALM      29.93R
BOISE          MOCLDY    50  37  61 NW13      29.98R
SPOKANE        CLOUDY    44  38  79 S9        29.96R
$$

REGIONAL REPORTS...ALBERTA

CITY           SKY/WX    TMP DP  RH WIND       PRES   REMARKS
EDMONTON       CLOUDY    52  46  82 N5        29.78S
CALGARY        CLOUDY    46  43  87 N13       29.80R
LETHBRIDGE     PTSUNNY   52  43  71 SW12      29.80R
MEDICINE HAT   PTSUNNY   55  48  76 E3        29.83R
WATERTON GATE    N/A     52  37  58 SW8         N/A
MILK RIVER       N/A     48  45  87 SE6         N/A
$$

REGIONAL REPORTS...SASKATCHEWAN

CITY           SKY/WX    TMP DP  RH WIND       PRES   REMARKS
SWIFT CURRENT  SUNNY     50  46  87 S8        29.88S
REGINA         PTSUNNY   54  52  94 VRB2      29.89R
SASKATOON      MOSUNNY   57  54  88 NE5       29.88S
CYPRESS HILLS    N/A     45  43  93 S9          N/A
VAL MARIE        N/A     43  41  93 W2          N/A
ROCKGLEN         N/A     50  48  93 N3          N/A
ASSINIBOIA       N/A     55  54  94 E8          N/A
$$




USA.gov is the U.S. government's official web portal to all federal, state and local government web resources and services.